Year,Month,Day,Hour,Minute,Value (Times are PST for temperature in C)
2012,03,21,00,00,3.80
2012,03,21,00,01,3.80
2012,03,21,00,02,3.80
2012,03,21,00,03,3.80
2012,03,21,00,04,3.80
2012,03,21,00,05,3.80
2012,03,21,00,06,3.80
2012,03,21,00,07,3.80
2012,03,21,00,08,3.80
2012,03,21,00,09,3.70
2012,03,21,00,10,3.60
2012,03,21,00,11,3.60
2012,03,21,00,12,3.50
2012,03,21,00,13,3.50
2012,03,21,00,14,3.40
2012,03,21,00,15,3.40
2012,03,21,00,16,3.40
2012,03,21,00,17,3.30
2012,03,21,00,18,3.30
2012,03,21,00,19,3.30
2012,03,21,00,20,3.30
2012,03,21,00,21,3.30
2012,03,21,00,22,3.30
2012,03,21,00,23,3.30
2012,03,21,00,24,3.30
2012,03,21,00,25,3.20
2012,03,21,00,26,3.20
2012,03,21,00,27,3.20
2012,03,21,00,28,3.20
2012,03,21,00,29,3.20
2012,03,21,00,30,3.10
2012,03,21,00,31,3.10
2012,03,21,00,32,3.10
2012,03,21,00,33,3.10
2012,03,21,00,34,3.10
2012,03,21,00,35,3.10
2012,03,21,00,36,3.10
2012,03,21,00,37,3.10
2012,03,21,00,38,3.10
2012,03,21,00,39,3.10
2012,03,21,00,40,3.00
2012,03,21,00,41,2.90
2012,03,21,00,42,2.90
2012,03,21,00,43,2.90
2012,03,21,00,44,2.90
2012,03,21,00,45,2.90
2012,03,21,00,46,2.90
2012,03,21,00,47,2.90
2012,03,21,00,48,2.90
2012,03,21,00,49,2.90
2012,03,21,00,50,2.90
2012,03,21,00,51,3.00
2012,03,21,00,52,3.10
2012,03,21,00,53,3.10
2012,03,21,00,54,3.10
2012,03,21,00,55,3.10
2012,03,21,00,56,3.10
2012,03,21,00,57,3.10
2012,03,21,00,58,3.10
2012,03,21,00,59,3.20
2012,03,21,01,00,3.20
2012,03,21,01,01,3.20
2012,03,21,01,02,3.20
2012,03,21,01,03,3.20
2012,03,21,01,04,3.20
2012,03,21,01,05,3.20
2012,03,21,01,06,3.20
2012,03,21,01,07,3.20
2012,03,21,01,08,3.20
2012,03,21,01,09,3.10
2012,03,21,01,10,3.10
2012,03,21,01,11,3.10
2012,03,21,01,12,3.10
2012,03,21,01,13,3.10
2012,03,21,01,14,3.20
2012,03,21,01,15,3.20
2012,03,21,01,16,3.20
2012,03,21,01,17,3.20
2012,03,21,01,18,3.30
2012,03,21,01,19,3.30
2012,03,21,01,20,3.30
2012,03,21,01,21,3.30
2012,03,21,01,22,3.30
2012,03,21,01,23,3.30
2012,03,21,01,24,3.40
2012,03,21,01,25,3.40
2012,03,21,01,26,3.40
2012,03,21,01,27,3.40
2012,03,21,01,28,3.40
2012,03,21,01,29,3.40
2012,03,21,01,30,3.40
2012,03,21,01,31,3.40
2012,03,21,01,32,3.40
2012,03,21,01,33,3.40
2012,03,21,01,34,3.50
2012,03,21,01,35,3.50
2012,03,21,01,36,3.50
2012,03,21,01,37,3.50
2012,03,21,01,38,3.50
2012,03,21,01,39,3.60
2012,03,21,01,40,3.60
2012,03,21,01,41,3.60
2012,03,21,01,42,3.60
2012,03,21,01,43,3.60
2012,03,21,01,44,3.50
2012,03,21,01,45,3.50
2012,03,21,01,46,3.50
2012,03,21,01,47,3.50
2012,03,21,01,48,3.50
2012,03,21,01,49,3.40
2012,03,21,01,50,3.40
2012,03,21,01,51,3.40
2012,03,21,01,52,3.40
2012,03,21,01,53,3.30
2012,03,21,01,54,3.30
2012,03,21,01,55,3.30
2012,03,21,01,56,3.30
2012,03,21,01,57,3.30
2012,03,21,01,58,3.30
2012,03,21,01,59,3.30
2012,03,21,02,00,3.30
2012,03,21,02,01,3.30
2012,03,21,02,02,3.30
2012,03,21,02,03,3.30
2012,03,21,02,04,3.30
2012,03,21,02,05,3.30
2012,03,21,02,06,3.30
2012,03,21,02,07,3.30
2012,03,21,02,08,3.20
2012,03,21,02,09,3.20
2012,03,21,02,10,3.20
2012,03,21,02,11,3.20
2012,03,21,02,12,3.20
2012,03,21,02,13,3.20
2012,03,21,02,14,3.10
2012,03,21,02,15,3.10
2012,03,21,02,16,3.10
2012,03,21,02,17,3.10
2012,03,21,02,18,3.10
2012,03,21,02,19,3.10
2012,03,21,02,20,3.10
2012,03,21,02,21,3.00
2012,03,21,02,22,2.90
2012,03,21,02,23,2.90
2012,03,21,02,24,2.90
2012,03,21,02,25,2.90
2012,03,21,02,26,2.90
2012,03,21,02,27,2.90
2012,03,21,02,28,2.90
2012,03,21,02,29,2.90
2012,03,21,02,30,2.90
2012,03,21,02,31,2.90
2012,03,21,02,32,2.90
2012,03,21,02,33,2.90
2012,03,21,02,34,2.90
2012,03,21,02,35,2.90
2012,03,21,02,36,3.00
2012,03,21,02,37,3.10
2012,03,21,02,38,3.10
2012,03,21,02,39,3.10
2012,03,21,02,40,3.20
2012,03,21,02,41,3.30
2012,03,21,02,42,3.30
2012,03,21,02,43,3.40
2012,03,21,02,44,3.40
2012,03,21,02,45,3.50
2012,03,21,02,46,3.50
2012,03,21,02,47,3.60
2012,03,21,02,48,3.60
2012,03,21,02,49,3.60
2012,03,21,02,50,3.60
2012,03,21,02,51,3.60
2012,03,21,02,52,3.60
2012,03,21,02,53,3.70
2012,03,21,02,54,3.70
2012,03,21,02,55,3.70
2012,03,21,02,56,3.70
2012,03,21,02,57,3.70
2012,03,21,02,58,3.70
2012,03,21,02,59,3.70
2012,03,21,03,00,3.70
2012,03,21,03,01,3.70
2012,03,21,03,02,3.70
2012,03,21,03,03,3.80
2012,03,21,03,04,3.80
2012,03,21,03,05,3.80
2012,03,21,03,06,3.80
2012,03,21,03,07,3.80
2012,03,21,03,08,3.70
2012,03,21,03,09,3.80
2012,03,21,03,10,3.70
2012,03,21,03,11,3.70
2012,03,21,03,12,3.70
2012,03,21,03,13,3.70
2012,03,21,03,14,3.70
2012,03,21,03,15,3.70
2012,03,21,03,16,3.70
2012,03,21,03,17,3.70
2012,03,21,03,18,3.60
2012,03,21,03,19,3.60
2012,03,21,03,20,3.60
2012,03,21,03,21,3.60
2012,03,21,03,22,3.50
2012,03,21,03,23,3.50
2012,03,21,03,24,3.50
2012,03,21,03,25,3.50
2012,03,21,03,26,3.50
2012,03,21,03,27,3.50
2012,03,21,03,28,3.50
2012,03,21,03,29,3.50
2012,03,21,03,30,3.50
2012,03,21,03,31,3.50
2012,03,21,03,32,3.50
2012,03,21,03,33,3.40
2012,03,21,03,34,3.40
2012,03,21,03,35,3.40
2012,03,21,03,36,3.40
2012,03,21,03,37,3.30
2012,03,21,03,38,3.30
2012,03,21,03,39,3.30
2012,03,21,03,40,3.30
2012,03,21,03,41,3.30
2012,03,21,03,42,3.20
2012,03,21,03,43,3.20
2012,03,21,03,44,3.20
2012,03,21,03,45,3.20
2012,03,21,03,46,3.20
2012,03,21,03,47,3.20
2012,03,21,03,48,3.20
2012,03,21,03,49,3.30
2012,03,21,03,50,3.30
2012,03,21,03,51,3.30
2012,03,21,03,52,3.30
2012,03,21,03,53,3.30
2012,03,21,03,54,3.20
2012,03,21,03,55,3.20
2012,03,21,03,56,3.20
2012,03,21,03,57,3.20
2012,03,21,03,58,3.20
2012,03,21,03,59,3.20
2012,03,21,04,00,3.20
2012,03,21,04,01,3.20
2012,03,21,04,02,3.20
2012,03,21,04,03,3.20
2012,03,21,04,04,3.20
2012,03,21,04,05,3.20
2012,03,21,04,06,3.20
2012,03,21,04,07,3.20
2012,03,21,04,08,3.20
2012,03,21,04,09,3.20
2012,03,21,04,10,3.20
2012,03,21,04,11,3.20
2012,03,21,04,12,3.20
2012,03,21,04,13,3.20
2012,03,21,04,14,3.20
2012,03,21,04,15,3.20
2012,03,21,04,16,3.20
2012,03,21,04,17,3.20
2012,03,21,04,18,3.20
2012,03,21,04,19,3.20
2012,03,21,04,20,3.20
2012,03,21,04,21,3.20
2012,03,21,04,22,3.20
2012,03,21,04,23,3.10
2012,03,21,04,24,3.10
2012,03,21,04,25,3.10
2012,03,21,04,26,3.00
2012,03,21,04,27,2.90
2012,03,21,04,28,2.90
2012,03,21,04,29,2.90
2012,03,21,04,30,2.90
2012,03,21,04,31,2.80
2012,03,21,04,32,2.80
2012,03,21,04,33,2.80
2012,03,21,04,34,2.80
2012,03,21,04,35,2.80
2012,03,21,04,36,2.80
2012,03,21,04,37,2.80
2012,03,21,04,38,2.80
2012,03,21,04,39,2.80
2012,03,21,04,40,2.90
2012,03,21,04,41,2.90
2012,03,21,04,42,2.90
2012,03,21,04,43,2.90
2012,03,21,04,44,2.90
2012,03,21,04,45,2.90
2012,03,21,04,46,2.90
2012,03,21,04,47,2.90
2012,03,21,04,48,2.90
2012,03,21,04,49,2.80
2012,03,21,04,50,2.80
2012,03,21,04,51,2.80
2012,03,21,04,52,2.80
2012,03,21,04,53,2.90
2012,03,21,04,54,2.90
2012,03,21,04,55,2.90
2012,03,21,04,56,2.90
2012,03,21,04,57,2.90
2012,03,21,04,58,2.90
2012,03,21,04,59,2.90
2012,03,21,05,00,2.90
2012,03,21,05,01,2.90
2012,03,21,05,02,2.90
2012,03,21,05,03,2.90
2012,03,21,05,04,2.80
2012,03,21,05,05,2.80
2012,03,21,05,06,2.80
2012,03,21,05,07,2.80
2012,03,21,05,08,2.80
2012,03,21,05,09,2.80
2012,03,21,05,10,2.80
2012,03,21,05,11,2.80
2012,03,21,05,12,2.80
2012,03,21,05,13,2.80
2012,03,21,05,14,2.80
2012,03,21,05,15,2.80
2012,03,21,05,16,2.80
2012,03,21,05,17,2.80
2012,03,21,05,18,2.80
2012,03,21,05,19,2.80
2012,03,21,05,20,2.70
2012,03,21,05,21,2.70
2012,03,21,05,22,2.70
2012,03,21,05,23,2.70
2012,03,21,05,24,2.70
2012,03,21,05,25,2.70
2012,03,21,05,26,2.70
2012,03,21,05,27,2.70
2012,03,21,05,28,2.70
2012,03,21,05,29,2.70
2012,03,21,05,30,2.70
2012,03,21,05,31,2.70
2012,03,21,05,32,2.70
2012,03,21,05,33,2.70
2012,03,21,05,34,2.70
2012,03,21,05,35,2.60
2012,03,21,05,36,2.60
2012,03,21,05,37,2.60
2012,03,21,05,38,2.60
2012,03,21,05,39,2.70
2012,03,21,05,40,2.70
2012,03,21,05,41,2.70
2012,03,21,05,42,2.60
2012,03,21,05,43,2.60
2012,03,21,05,44,2.60
2012,03,21,05,45,2.60
2012,03,21,05,46,2.60
2012,03,21,05,47,2.60
2012,03,21,05,48,2.60
2012,03,21,05,49,2.60
2012,03,21,05,50,2.60
2012,03,21,05,51,2.60
2012,03,21,05,52,2.60
2012,03,21,05,53,2.60
2012,03,21,05,54,2.60
2012,03,21,05,55,2.60
2012,03,21,05,56,2.60
2012,03,21,05,57,2.60
2012,03,21,05,58,2.60
2012,03,21,05,59,2.60
2012,03,21,06,00,2.60
2012,03,21,06,01,2.60
2012,03,21,06,02,2.60
2012,03,21,06,03,2.60
2012,03,21,06,04,2.50
2012,03,21,06,05,2.50
2012,03,21,06,06,2.50
2012,03,21,06,07,2.50
2012,03,21,06,08,2.50
2012,03,21,06,09,2.50
2012,03,21,06,10,2.50
2012,03,21,06,11,2.40
2012,03,21,06,12,2.40
2012,03,21,06,13,2.40
2012,03,21,06,14,2.30
2012,03,21,06,15,2.30
2012,03,21,06,16,2.20
2012,03,21,06,17,2.20
2012,03,21,06,18,2.20
2012,03,21,06,19,2.10
2012,03,21,06,20,2.00
2012,03,21,06,21,1.90
2012,03,21,06,22,1.80
2012,03,21,06,23,1.70
2012,03,21,06,24,1.70
2012,03,21,06,25,1.60
2012,03,21,06,26,1.60
2012,03,21,06,27,1.50
2012,03,21,06,28,1.50
2012,03,21,06,29,1.40
2012,03,21,06,30,1.30
2012,03,21,06,31,1.30
2012,03,21,06,32,1.30
2012,03,21,06,33,1.30
2012,03,21,06,34,1.30
2012,03,21,06,35,1.30
2012,03,21,06,36,1.30
2012,03,21,06,37,1.30
2012,03,21,06,38,1.30
2012,03,21,06,39,1.30
2012,03,21,06,40,1.30
2012,03,21,06,41,1.20
2012,03,21,06,42,1.20
2012,03,21,06,43,1.20
2012,03,21,06,44,1.10
2012,03,21,06,45,1.10
2012,03,21,06,46,1.10
2012,03,21,06,47,1.10
2012,03,21,06,48,1.10
2012,03,21,06,49,1.10
2012,03,21,06,50,1.10
2012,03,21,06,51,1.10
2012,03,21,06,52,1.10
2012,03,21,06,53,1.10
2012,03,21,06,54,1.20
2012,03,21,06,55,1.20
2012,03,21,06,56,1.20
2012,03,21,06,57,1.20
2012,03,21,06,58,1.20
2012,03,21,06,59,1.10
2012,03,21,07,00,1.10
2012,03,21,07,01,1.10
2012,03,21,07,02,1.00
2012,03,21,07,03,1.00
2012,03,21,07,04,1.00
2012,03,21,07,05,0.90
2012,03,21,07,06,0.90
2012,03,21,07,07,0.80
2012,03,21,07,08,0.80
2012,03,21,07,09,0.80
2012,03,21,07,10,0.70
2012,03,21,07,11,0.70
2012,03,21,07,12,0.60
2012,03,21,07,13,0.60
2012,03,21,07,14,0.60
2012,03,21,07,15,0.50
2012,03,21,07,16,0.50
2012,03,21,07,17,0.40
2012,03,21,07,18,0.40
2012,03,21,07,19,0.40
2012,03,21,07,20,0.40
2012,03,21,07,21,0.30
2012,03,21,07,22,0.30
2012,03,21,07,23,0.30
2012,03,21,07,24,0.30
2012,03,21,07,25,0.30
2012,03,21,07,26,0.30
2012,03,21,07,27,0.30
2012,03,21,07,28,0.30
2012,03,21,07,29,0.30
2012,03,21,07,30,0.30
2012,03,21,07,31,0.30
2012,03,21,07,32,0.30
2012,03,21,07,33,0.30
2012,03,21,07,34,0.30
2012,03,21,07,35,0.30
2012,03,21,07,36,0.30
2012,03,21,07,37,0.30
2012,03,21,07,38,0.30
2012,03,21,07,39,0.30
2012,03,21,07,40,0.30
2012,03,21,07,41,0.30
2012,03,21,07,42,0.30
2012,03,21,07,43,0.20
2012,03,21,07,44,0.20
2012,03,21,07,45,0.20
2012,03,21,07,46,0.20
2012,03,21,07,47,0.20
2012,03,21,07,48,0.20
2012,03,21,07,49,0.20
2012,03,21,07,50,0.20
2012,03,21,07,51,0.20
2012,03,21,07,52,0.20
2012,03,21,07,53,0.30
2012,03,21,07,54,0.30
2012,03,21,07,55,0.30
2012,03,21,07,56,0.30
2012,03,21,07,57,0.30
2012,03,21,07,58,0.40
2012,03,21,07,59,0.40
2012,03,21,08,00,0.50
2012,03,21,08,01,0.50
2012,03,21,08,02,0.60
2012,03,21,08,03,0.60
2012,03,21,08,04,0.70
2012,03,21,08,05,0.80
2012,03,21,08,06,0.80
2012,03,21,08,07,0.80
2012,03,21,08,08,0.90
2012,03,21,08,09,1.00
2012,03,21,08,10,1.00
2012,03,21,08,11,1.10
2012,03,21,08,12,1.10
2012,03,21,08,13,1.20
2012,03,21,08,14,1.30
2012,03,21,08,15,1.40
2012,03,21,08,16,1.40
2012,03,21,08,17,1.50
2012,03,21,08,18,1.50
2012,03,21,08,19,1.50
2012,03,21,08,20,1.50
2012,03,21,08,21,1.60
2012,03,21,08,22,1.60
2012,03,21,08,23,1.60
2012,03,21,08,24,1.60
2012,03,21,08,25,1.60
2012,03,21,08,26,1.60
2012,03,21,08,27,1.60
2012,03,21,08,28,1.60
2012,03,21,08,29,1.60
2012,03,21,08,30,1.60
2012,03,21,08,31,1.60
2012,03,21,08,32,1.60
2012,03,21,08,33,1.70
2012,03,21,08,34,1.70
2012,03,21,08,35,1.70
2012,03,21,08,36,1.70
2012,03,21,08,37,1.70
2012,03,21,08,38,1.80
2012,03,21,08,39,1.80
2012,03,21,08,40,1.80
2012,03,21,08,41,1.80
2012,03,21,08,42,1.80
2012,03,21,08,43,1.80
2012,03,21,08,44,1.90
2012,03,21,08,45,1.90
2012,03,21,08,46,1.90
2012,03,21,08,47,2.00
2012,03,21,08,48,2.00
2012,03,21,08,49,2.10
2012,03,21,08,50,2.10
2012,03,21,08,51,2.20
2012,03,21,08,52,2.30
2012,03,21,08,53,2.40
2012,03,21,08,54,2.40
2012,03,21,08,55,2.50
2012,03,21,08,56,2.50
2012,03,21,08,57,2.70
2012,03,21,08,58,2.70
2012,03,21,08,59,2.80
2012,03,21,09,00,2.90
2012,03,21,09,01,2.90
2012,03,21,09,02,3.00
2012,03,21,09,03,3.10
2012,03,21,09,04,3.30
2012,03,21,09,05,3.40
2012,03,21,09,06,3.60
2012,03,21,09,07,3.80
2012,03,21,09,08,4.00
2012,03,21,09,09,4.20
2012,03,21,09,10,4.40
2012,03,21,09,11,4.60
2012,03,21,09,12,4.70
2012,03,21,09,13,4.90
2012,03,21,09,14,4.90
2012,03,21,09,15,5.00
2012,03,21,09,16,5.10
2012,03,21,09,17,5.20
2012,03,21,09,18,5.30
2012,03,21,09,19,5.30
2012,03,21,09,20,5.40
2012,03,21,09,21,5.50
2012,03,21,09,22,5.60
2012,03,21,09,23,5.60
2012,03,21,09,24,5.70
2012,03,21,09,25,5.70
2012,03,21,09,26,5.70
2012,03,21,09,27,5.70
2012,03,21,09,28,5.70
2012,03,21,09,29,5.70
2012,03,21,09,30,5.70
2012,03,21,09,31,5.70
2012,03,21,09,32,5.70
2012,03,21,09,33,5.70
2012,03,21,09,34,5.70
2012,03,21,09,35,5.70
2012,03,21,09,36,5.70
2012,03,21,09,37,5.70
2012,03,21,09,38,5.60
2012,03,21,09,39,5.50
2012,03,21,09,40,5.40
2012,03,21,09,41,5.40
2012,03,21,09,42,5.40
2012,03,21,09,43,5.30
2012,03,21,09,44,5.30
2012,03,21,09,45,5.30
2012,03,21,09,46,5.30
2012,03,21,09,47,5.30
2012,03,21,09,48,5.30
2012,03,21,09,49,5.30
2012,03,21,09,50,5.40
2012,03,21,09,51,5.40
2012,03,21,09,52,5.40
2012,03,21,09,53,5.40
2012,03,21,09,54,5.50
2012,03,21,09,55,5.60
2012,03,21,09,56,5.60
2012,03,21,09,57,5.70
2012,03,21,09,58,5.70
2012,03,21,09,59,5.70
2012,03,21,10,00,5.70
2012,03,21,10,01,5.70
2012,03,21,10,02,5.70
2012,03,21,10,03,5.70
2012,03,21,10,04,5.70
2012,03,21,10,05,5.70
2012,03,21,10,06,5.80
2012,03,21,10,07,5.80
2012,03,21,10,08,5.80
2012,03,21,10,09,5.80
2012,03,21,10,10,5.80
2012,03,21,10,11,5.80
2012,03,21,10,12,5.80
2012,03,21,10,13,5.90
2012,03,21,10,14,5.90
2012,03,21,10,15,6.00
2012,03,21,10,16,6.00
2012,03,21,10,17,6.10
2012,03,21,10,18,6.10
2012,03,21,10,19,6.10
2012,03,21,10,20,6.10
2012,03,21,10,21,6.20
2012,03,21,10,22,6.20
2012,03,21,10,23,6.20
2012,03,21,10,24,6.20
2012,03,21,10,25,6.20
2012,03,21,10,26,6.20
2012,03,21,10,27,6.20
2012,03,21,10,28,6.20
2012,03,21,10,29,6.20
2012,03,21,10,30,6.20
2012,03,21,10,31,6.30
2012,03,21,10,32,6.30
2012,03,21,10,33,6.40
2012,03,21,10,34,6.40
2012,03,21,10,35,6.40
2012,03,21,10,36,6.40
2012,03,21,10,37,6.40
2012,03,21,10,38,6.40
2012,03,21,10,39,6.30
2012,03,21,10,40,6.30
2012,03,21,10,41,6.20
2012,03,21,10,42,6.20
2012,03,21,10,43,6.20
2012,03,21,10,44,6.30
2012,03,21,10,45,6.30
2012,03,21,10,46,6.30
2012,03,21,10,47,6.30
2012,03,21,10,48,6.40
2012,03,21,10,49,6.40
2012,03,21,10,50,6.50
2012,03,21,10,51,6.40
2012,03,21,10,52,6.40
2012,03,21,10,53,6.40
2012,03,21,10,54,6.40
2012,03,21,10,55,6.50
2012,03,21,10,56,6.60
2012,03,21,10,57,6.60
2012,03,21,10,58,6.70
2012,03,21,10,59,6.70
2012,03,21,11,00,6.80
2012,03,21,11,01,6.80
2012,03,21,11,02,6.70
2012,03,21,11,03,6.60
2012,03,21,11,04,6.60
2012,03,21,11,05,6.50
2012,03,21,11,06,6.40
2012,03,21,11,07,6.40
2012,03,21,11,08,6.40
2012,03,21,11,09,6.60
2012,03,21,11,10,6.60
2012,03,21,11,11,6.70
2012,03,21,11,12,6.70
2012,03,21,11,13,6.60
2012,03,21,11,14,6.60
2012,03,21,11,15,6.70
2012,03,21,11,16,6.80
2012,03,21,11,17,6.70
2012,03,21,11,18,6.70
2012,03,21,11,19,6.80
2012,03,21,11,20,6.80
2012,03,21,11,21,6.80
2012,03,21,11,22,6.70
2012,03,21,11,23,6.60
2012,03,21,11,24,6.50
2012,03,21,11,25,6.50
2012,03,21,11,26,6.60
2012,03,21,11,27,6.60
2012,03,21,11,28,6.60
2012,03,21,11,29,6.60
2012,03,21,11,30,6.60
2012,03,21,11,31,6.60
2012,03,21,11,32,6.60
2012,03,21,11,33,6.70
2012,03,21,11,34,6.70
2012,03,21,11,35,6.70
2012,03,21,11,36,6.70
2012,03,21,11,37,6.70
2012,03,21,11,38,6.80
2012,03,21,11,39,6.80
2012,03,21,11,40,6.80
2012,03,21,11,41,6.80
2012,03,21,11,42,6.80
2012,03,21,11,43,6.80
2012,03,21,11,44,6.80
2012,03,21,11,45,6.80
2012,03,21,11,46,6.80
2012,03,21,11,47,6.90
2012,03,21,11,48,6.80
2012,03,21,11,49,6.80
2012,03,21,11,50,6.80
2012,03,21,11,51,6.80
2012,03,21,11,52,6.80
2012,03,21,11,53,6.80
2012,03,21,11,54,6.80
2012,03,21,11,55,6.80
2012,03,21,11,56,6.80
2012,03,21,11,57,6.80
2012,03,21,11,58,6.80
2012,03,21,11,59,6.80
2012,03,21,12,00,6.80
2012,03,21,12,01,6.80
2012,03,21,12,02,6.80
2012,03,21,12,03,6.80
2012,03,21,12,04,6.80
2012,03,21,12,05,6.90
2012,03,21,12,06,6.90
2012,03,21,12,07,6.80
2012,03,21,12,08,6.80
2012,03,21,12,09,6.80
2012,03,21,12,10,6.80
2012,03,21,12,11,6.70
2012,03,21,12,12,6.70
2012,03,21,12,13,6.70
2012,03,21,12,14,6.80
2012,03,21,12,15,6.80
2012,03,21,12,16,6.80
2012,03,21,12,17,6.80
2012,03,21,12,18,6.90
2012,03,21,12,19,6.90
2012,03,21,12,20,7.00
2012,03,21,12,21,7.00
2012,03,21,12,22,7.00
2012,03,21,12,23,6.90
2012,03,21,12,24,6.80
2012,03,21,12,25,6.80
2012,03,21,12,26,6.80
2012,03,21,12,27,6.80
2012,03,21,12,28,6.80
2012,03,21,12,29,6.80
2012,03,21,12,30,6.80
2012,03,21,12,31,6.80
2012,03,21,12,32,6.80
2012,03,21,12,33,6.80
2012,03,21,12,34,6.80
2012,03,21,12,35,6.80
2012,03,21,12,36,6.70
2012,03,21,12,37,6.70
2012,03,21,12,38,6.80
2012,03,21,12,39,6.90
2012,03,21,12,40,6.90
2012,03,21,12,41,7.00
2012,03,21,12,42,7.00
2012,03,21,12,43,7.10
2012,03,21,12,44,7.20
2012,03,21,12,45,7.20
2012,03,21,12,46,7.10
2012,03,21,12,47,7.10
2012,03,21,12,48,7.00
2012,03,21,12,49,7.00
2012,03,21,12,50,6.90
2012,03,21,12,51,6.90
2012,03,21,12,52,6.90
2012,03,21,12,53,6.90
2012,03,21,12,54,6.90
2012,03,21,12,55,6.90
2012,03,21,12,56,7.00
2012,03,21,12,57,7.00
2012,03,21,12,58,7.00
2012,03,21,12,59,7.10
2012,03,21,13,00,7.10
2012,03,21,13,01,7.20
2012,03,21,13,02,7.10
2012,03,21,13,03,7.20
2012,03,21,13,04,7.30
2012,03,21,13,05,7.30
2012,03,21,13,06,7.30
2012,03,21,13,07,7.30
2012,03,21,13,08,7.30
2012,03,21,13,09,7.30
2012,03,21,13,10,7.30
2012,03,21,13,11,7.20
2012,03,21,13,12,7.20
2012,03,21,13,13,7.20
2012,03,21,13,14,7.20
2012,03,21,13,15,7.20
2012,03,21,13,16,7.20
2012,03,21,13,17,7.30
2012,03,21,13,18,7.30
2012,03,21,13,19,7.30
2012,03,21,13,20,7.30
2012,03,21,13,21,7.30
2012,03,21,13,22,7.30
2012,03,21,13,23,7.30
2012,03,21,13,24,7.30
2012,03,21,13,25,7.30
2012,03,21,13,26,7.30
2012,03,21,13,27,7.40
2012,03,21,13,28,7.50
2012,03,21,13,29,7.50
2012,03,21,13,30,7.60
2012,03,21,13,31,7.60
2012,03,21,13,32,7.60
2012,03,21,13,33,7.70
2012,03,21,13,34,7.80
2012,03,21,13,35,7.80
2012,03,21,13,36,7.80
2012,03,21,13,37,7.80
2012,03,21,13,38,7.70
2012,03,21,13,39,7.60
2012,03,21,13,40,7.60
2012,03,21,13,41,7.50
2012,03,21,13,42,7.60
2012,03,21,13,43,7.60
2012,03,21,13,44,7.70
2012,03,21,13,45,7.60
2012,03,21,13,46,7.70
2012,03,21,13,47,7.70
2012,03,21,13,48,7.60
2012,03,21,13,49,7.60
2012,03,21,13,50,7.60
2012,03,21,13,51,7.50
2012,03,21,13,52,7.50
2012,03,21,13,53,7.60
2012,03,21,13,54,7.60
2012,03,21,13,55,7.50
2012,03,21,13,56,7.40
2012,03,21,13,57,7.40
2012,03,21,13,58,7.40
2012,03,21,13,59,7.50
2012,03,21,14,00,7.60
2012,03,21,14,01,7.70
2012,03,21,14,02,7.80
2012,03,21,14,03,7.80
2012,03,21,14,04,7.90
2012,03,21,14,05,7.90
2012,03,21,14,06,7.90
2012,03,21,14,07,7.90
2012,03,21,14,08,7.90
2012,03,21,14,09,8.00
2012,03,21,14,10,8.00
2012,03,21,14,11,8.00
2012,03,21,14,12,7.90
2012,03,21,14,13,7.90
2012,03,21,14,14,7.90
2012,03,21,14,15,7.90
2012,03,21,14,16,7.90
2012,03,21,14,17,8.00
2012,03,21,14,18,8.10
2012,03,21,14,19,8.00
2012,03,21,14,20,7.90
2012,03,21,14,21,7.80
2012,03,21,14,22,7.80
2012,03,21,14,23,7.90
2012,03,21,14,24,7.90
2012,03,21,14,25,7.80
2012,03,21,14,26,7.80
2012,03,21,14,27,7.90
2012,03,21,14,28,8.00
2012,03,21,14,29,8.10
2012,03,21,14,30,8.10
2012,03,21,14,31,8.10
2012,03,21,14,32,8.20
2012,03,21,14,33,8.20
2012,03,21,14,34,8.20
2012,03,21,14,35,8.20
2012,03,21,14,36,8.30
2012,03,21,14,37,8.30
2012,03,21,14,38,8.20
2012,03,21,14,39,8.20
2012,03,21,14,40,8.10
2012,03,21,14,41,8.00
2012,03,21,14,42,8.00
2012,03,21,14,43,7.90
2012,03,21,14,44,8.00
2012,03,21,14,45,8.00
2012,03,21,14,46,7.90
2012,03,21,14,47,7.80
2012,03,21,14,48,7.90
2012,03,21,14,49,7.90
2012,03,21,14,50,7.90
2012,03,21,14,51,8.00
2012,03,21,14,52,8.00
2012,03,21,14,53,7.90
2012,03,21,14,54,7.90
2012,03,21,14,55,7.90
2012,03,21,14,56,7.80
2012,03,21,14,57,7.80
2012,03,21,14,58,7.80
2012,03,21,14,59,7.90
2012,03,21,15,00,7.80
2012,03,21,15,01,7.90
2012,03,21,15,02,7.90
2012,03,21,15,03,7.90
2012,03,21,15,04,7.90
2012,03,21,15,05,7.90
2012,03,21,15,06,7.90
2012,03,21,15,07,7.90
2012,03,21,15,08,7.80
2012,03,21,15,09,7.80
2012,03,21,15,10,7.80
2012,03,21,15,11,7.80
2012,03,21,15,12,7.80
2012,03,21,15,13,7.80
2012,03,21,15,14,7.80
2012,03,21,15,15,7.80
2012,03,21,15,16,7.80
2012,03,21,15,17,7.90
2012,03,21,15,18,7.80
2012,03,21,15,19,7.90
2012,03,21,15,20,7.80
2012,03,21,15,21,7.90
2012,03,21,15,22,7.90
2012,03,21,15,23,7.90
2012,03,21,15,24,7.90
2012,03,21,15,25,7.90
2012,03,21,15,26,7.90
2012,03,21,15,27,7.90
2012,03,21,15,28,7.90
2012,03,21,15,29,7.90
2012,03,21,15,30,8.00
2012,03,21,15,31,8.00
2012,03,21,15,32,8.00
2012,03,21,15,33,8.00
2012,03,21,15,34,7.90
2012,03,21,15,35,7.90
2012,03,21,15,36,7.80
2012,03,21,15,37,7.80
2012,03,21,15,38,7.90
2012,03,21,15,39,8.00
2012,03,21,15,40,8.00
2012,03,21,15,41,8.10
2012,03,21,15,42,8.10
2012,03,21,15,43,8.10
2012,03,21,15,44,8.10
2012,03,21,15,45,8.10
2012,03,21,15,46,8.20
2012,03,21,15,47,8.20
2012,03,21,15,48,8.10
2012,03,21,15,49,8.10
2012,03,21,15,50,8.10
2012,03,21,15,51,8.20
2012,03,21,15,52,8.20
2012,03,21,15,53,8.20
2012,03,21,15,54,8.10
2012,03,21,15,55,8.10
2012,03,21,15,56,8.00
2012,03,21,15,57,8.00
2012,03,21,15,58,8.10
2012,03,21,15,59,8.10
2012,03,21,16,00,8.10
2012,03,21,16,01,8.10
2012,03,21,16,02,8.00
2012,03,21,16,03,8.00
2012,03,21,16,04,7.90
2012,03,21,16,05,7.90
2012,03,21,16,06,7.90
2012,03,21,16,07,7.90
2012,03,21,16,08,7.90
2012,03,21,16,09,7.90
2012,03,21,16,10,7.90
2012,03,21,16,11,7.90
2012,03,21,16,12,8.00
2012,03,21,16,13,8.00
2012,03,21,16,14,8.00
2012,03,21,16,15,8.00
2012,03,21,16,16,8.00
2012,03,21,16,17,8.00
2012,03,21,16,18,8.00
2012,03,21,16,19,8.00
2012,03,21,16,20,8.10
2012,03,21,16,21,8.00
2012,03,21,16,22,8.00
2012,03,21,16,23,8.00
2012,03,21,16,24,8.10
2012,03,21,16,25,8.10
2012,03,21,16,26,8.10
2012,03,21,16,27,8.20
2012,03,21,16,28,8.20
2012,03,21,16,29,8.20
2012,03,21,16,30,8.10
2012,03,21,16,31,8.00
2012,03,21,16,32,8.00
2012,03,21,16,33,8.00
2012,03,21,16,34,8.00
2012,03,21,16,35,8.00
2012,03,21,16,36,8.00
2012,03,21,16,37,8.00
2012,03,21,16,38,8.00
2012,03,21,16,39,8.00
2012,03,21,16,40,8.00
2012,03,21,16,41,8.00
2012,03,21,16,42,8.00
2012,03,21,16,43,8.00
2012,03,21,16,44,8.00
2012,03,21,16,45,7.90
2012,03,21,16,46,7.90
2012,03,21,16,47,7.90
2012,03,21,16,48,7.90
2012,03,21,16,49,7.90
2012,03,21,16,50,7.90
2012,03,21,16,51,7.90
2012,03,21,16,52,7.90
2012,03,21,16,53,7.90
2012,03,21,16,54,8.00
2012,03,21,16,55,8.00
2012,03,21,16,56,8.00
2012,03,21,16,57,8.10
2012,03,21,16,58,8.10
2012,03,21,16,59,8.10
2012,03,21,17,00,8.10
2012,03,21,17,01,8.10
2012,03,21,17,02,8.10
2012,03,21,17,03,8.00
2012,03,21,17,04,8.00
2012,03,21,17,05,8.00
2012,03,21,17,06,8.00
2012,03,21,17,07,8.00
2012,03,21,17,08,7.90
2012,03,21,17,09,7.90
2012,03,21,17,10,7.90
2012,03,21,17,11,7.90
2012,03,21,17,12,7.80
2012,03,21,17,13,7.80
2012,03,21,17,14,7.80
2012,03,21,17,15,7.80
2012,03,21,17,16,7.80
2012,03,21,17,17,7.80
2012,03,21,17,18,7.80
2012,03,21,17,19,7.80
2012,03,21,17,20,7.80
2012,03,21,17,21,7.80
2012,03,21,17,22,7.80
2012,03,21,17,23,7.80
2012,03,21,17,24,7.80
2012,03,21,17,25,7.80
2012,03,21,17,26,7.80
2012,03,21,17,27,7.80
2012,03,21,17,28,7.80
2012,03,21,17,29,7.80
2012,03,21,17,30,7.80
2012,03,21,17,31,7.80
2012,03,21,17,32,7.80
2012,03,21,17,33,7.80
2012,03,21,17,34,7.80
2012,03,21,17,35,7.80
2012,03,21,17,36,7.80
2012,03,21,17,37,7.80
2012,03,21,17,38,7.90
2012,03,21,17,39,7.80
2012,03,21,17,40,7.80
2012,03,21,17,41,7.70
2012,03,21,17,42,7.60
2012,03,21,17,43,7.40
2012,03,21,17,44,7.30
2012,03,21,17,45,7.30
2012,03,21,17,46,7.20
2012,03,21,17,47,7.20
2012,03,21,17,48,7.20
2012,03,21,17,49,7.20
2012,03,21,17,50,7.20
2012,03,21,17,51,7.20
2012,03,21,17,52,7.20
2012,03,21,17,53,7.20
2012,03,21,17,54,7.20
2012,03,21,17,55,7.20
2012,03,21,17,56,7.20
2012,03,21,17,57,7.30
2012,03,21,17,58,7.20
2012,03,21,17,59,7.20
2012,03,21,18,00,7.20
2012,03,21,18,01,7.20
2012,03,21,18,02,7.10
2012,03,21,18,03,7.10
2012,03,21,18,04,7.10
2012,03,21,18,05,7.00
2012,03,21,18,06,7.00